This is the latest recevied weather packets stored in our database for station/object WV5G-13. If no packets are shown the sender has not sent any weather packets the latest 10 day(s).
| Time | Temp. | Humidity | Pressure | Rain* | Wind** | Luminosity | Snow |
|---|---|---|---|---|---|---|---|
| 1777938848 | 28.33° C | 19% | 1001.4 hPa | 0 mm | - | 108 W/m² | - |
| 1777938544 | 28.33° C | 19% | 1001.4 hPa | 0 mm | - | 114 W/m² | - |
| 1777938242 | 28.89° C | 19% | 1001.3 hPa | 0 mm | - | 126 W/m² | - |
| 1777937938 | 28.89° C | 17% | 1001.4 hPa | 0 mm | - | 135 W/m² | - |
| 1777937634 | 28.89° C | 18% | 1001.6 hPa | 0 mm | - | 140 W/m² | - |
| 1777937330 | 28.89° C | 19% | 1001.3 hPa | 0 mm | - | 161 W/m² | - |
| 1777937028 | 28.33° C | 20% | 1001.3 hPa | 0 mm | - | 178 W/m² | - |
| 1777936724 | 28.89° C | 21% | 1001.4 hPa | 0 mm | - | 186 W/m² | - |
| 1777936421 | 28.89° C | 22% | 1001.4 hPa | 0 mm | - | 191 W/m² | - |
| 1777936117 | 28.89° C | 21% | 1001.6 hPa | 0 mm | - | 202 W/m² | - |
| 1777935815 | 28.89° C | 20% | 1001.6 hPa | 0 mm | - | 221 W/m² | - |
| 1777935514 | 28.89° C | 20% | 1001.8 hPa | 0 mm | - | 235 W/m² | - |
| 1777935210 | 28.89° C | 19% | 1001.8 hPa | 0 mm | - | 208 W/m² | - |
| 1777934907 | 28.33° C | 19% | 1001.6 hPa | 0 mm | - | 211 W/m² | - |
| 1777934604 | 29.44° C | 18% | 1001.7 hPa | 0 mm | - | 248 W/m² | - |
| 1777934301 | 29.44° C | 18% | 1001.9 hPa | 0 mm | - | 329 W/m² | - |
| 1777933996 | 29.44° C | 18% | 1001.9 hPa | 0 mm | - | 363 W/m² | - |
| 1777933693 | 29.44° C | 17% | 1002 hPa | 0 mm | - | 372 W/m² | - |
| 1777933390 | 29.44° C | 17% | 1002.1 hPa | 0 mm | - | 369 W/m² | - |
| 1777933089 | 29.44° C | 19% | 1002.1 hPa | 0 mm | - | 417 W/m² | - |
| 1777932785 | 29.44° C | 19% | 1002.1 hPa | 0 mm | - | 385 W/m² | - |
| 1777932482 | 29.44° C | 18% | 1001.9 hPa | 0 mm | - | 334 W/m² | - |
| 1777932178 | 29.44° C | 18% | 1002.4 hPa | 0 mm | - | 446 W/m² | - |
| 1777931876 | 30° C | 19% | 1002.1 hPa | 0 mm | - | 460 W/m² | - |
| 1777931572 | 29.44° C | 17% | 1002 hPa | 0 mm | - | 585 W/m² | - |
* Rain latest hour (hover to see other rain measurements)
** Current wind speed in m/s (hover to see current wind gust speed)